This demonstration page uses our WeatherBlox Daily Observations layout. Learn more.

Left ArrowRight Arrow

41.12389, -100.76542

Hourly Observations for July 26, 2016

Temp ( °F °C ) Dew Point ( °F °C ) Humidity (%) Winds ( mph kmh ) Pressure ( in mb ) Visibility ( mi km ) Precip ( " mm )
12:53 am 00:53 Clear 72 22.2 64 17.8 76 76 SSE 8 13 30.03 1017 10 16 0.00 0.00
1:53 am 01:53 Clear 71 21.7 64 17.8 79 79 SSE 7 11 30.03 1017 10 16 0.00 0.00
2:53 am 02:53 Clear 67 19.4 64 17.8 91 91 ESE 6 9 30.03 1017 10 16 0.00 0.00
3:53 am 03:53 Clear 65 18.3 63 17.2 93 93 ESE 6 9 30.03 1017 10 16 0.00 0.00
4:53 am 04:53 Clear 64 17.8 63 17.2 96 96 ESE 6 9 30.03 1017 10 16 0.00 0.00
5:53 am 05:53 Clear 63 17.2 62 16.7 97 97 ESE 6 9 30.03 1017 10 16 0.00 0.00
6:53 am 06:53 Sunny 65 18.3 64 17.8 97 97 SE 5 7 30.03 1017 10 16 0.00 0.00
7:53 am 07:53 Sunny 68 20 65 18.3 90 90 S 9 15 30.03 1017 10 16 0.00 0.00
8:53 am 08:53 Sunny 72 22.2 66 18.9 82 82 S 10 17 30.01 1016 10 16 0.00 0.00
9:53 am 09:53 Sunny 76 24.4 65 18.3 69 69 S 9 15 30.01 1016 10 16 0.00 0.00
10:53 am 10:53 Sunny 79 26.1 66 18.9 65 65 S 15 24 29.99 1016 10 16 0.00 0.00
11:53 am 11:53 Sunny 82 27.8 66 18.9 58 58 S 12 19 29.97 1015 10 16 0.00 0.00
12:53 pm 12:53 Sunny 84 28.9 67 19.4 57 57 S 9 15 29.97 1015 10 16 0.00 0.00
1:53 pm 13:53 Sunny 86 30 68 20 55 55 SSE 10 17 29.95 1014 10 16 0.00 0.00
2:53 pm 14:53 Sunny 87 30.6 68 20 53 53 SE 9 15 29.94 1014 10 16 0.00 0.00
3:53 pm 15:53 Mostly Sunny 88 31.1 68 20 52 52 SSE 12 19 29.91 1013 10 16 0.00 0.00
4:53 pm 16:53 Sunny 88 31.1 68 20 52 52 SE 13 20 29.90 1013 10 16 0.00 0.00
5:53 pm 17:53 Sunny 87 30.6 67 19.4 51 51 SSE 15 24 29.88 1012 10 16 0.00 0.00
6:53 pm 18:53 Sunny 86 30 67 19.4 53 53 SE 9 15 29.88 1012 10 16 0.00 0.00
7:53 pm 19:53 Sunny 83 28.3 68 20 61 61 SE 9 15 29.88 1012 10 16 0.00 0.00
8:53 pm 20:53 Sunny 79 26.1 66 18.9 65 65 SE 9 15 29.88 1012 10 16 0.00 0.00
9:53 pm 21:53 Clear 77 25 65 18.3 66 66 SE 10 17 29.87 1012 10 16 0.00 0.00
10:53 pm 22:53 Partly Cloudy 76 24.4 65 18.3 69 69 SE 10 17 29.94 1014 10 16 0.00 0.00
11:53 pm 23:53 Mostly Clear 74 23.3 66 18.9 76 76 NE 9 15 30.00 1016 10 16 0.00 0.00

Powered by AerisWeather